Regional Weather Roundup
Issued by NWS Austin/San Antonio, TX

Home | Current Version | Previous Version | Text Only | Print | Product List | Glossary On
Versions: 1 2 3 4 5 6 7 8 9 10 11 12 13 14 15 16 17 18 19 20 21 22 23 24 25 26 27 28 29 30 31 32 33 34 35 36 37 38 39 40 41 42 43 44 45 46 47 48 49 50
000
ASUS44 KEWX 280202
RWREWX
SOUTH TEXAS REGIONAL WEATHER ROUNDUP
NATIONAL WEATHER SERVICE AUSTIN/SAN ANTONIO TX
900 PM CDT THU APR 27 2017

NOTE: "FAIR" INDICATED FEW OR NO CLOUDS BELOW 12,000 FEET WITH NO
SIGNIFICANT WEATHER AND/OR OBSTRUCTIONS TO VISIBILITY.

* - THESE STATIONS ARE NOT NWS OR FAA STATIONS...AND ARE NOT SUBJECT
    TO NWS AND FAA QUALITY CONTROL.

TXZ171-172-183>190-280300-
TEXAS HILL COUNTRY AND EDWARDS PLATEAU

CITY           SKY/WX    TMP DP  RH WIND       PRES   REMARKS
JUNCTION       CLEAR     77  50  38 S5        29.59S
*LLANO         CLEAR     79  48  34 S6        29.61S
BURNET         CLEAR     74  50  42 S7        29.62S
*HORSESHOE BAY CLEAR     74  52  46 SE3       29.60S
*KERRVILLE     PTCLDY    74  61  63 SE8       29.63R
*FREDERICKSBRG CLEAR     74  51  43 SE6       29.62S
*ROCKSPRINGS   CLEAR     72  54  53 S7        29.65S
*BOERNE STAGE  CLEAR     75  55  50 S12G17    29.64S
*CASTROVILLE   CLEAR     80  60  51 SE14      29.62R
HONDO          PTCLDY    79  61  53 SE10      29.60R
*UVALDE        PTCLDY    77  61  57 SE6       29.59R
DEL RIO        PTCLDY    82  59  45 E10       29.53R
LAUGHLIN AFB   MOCLDY    79  61  53 SE7       29.55R
CARRIZO SPRGS  CLEAR     84  63  48 SE10G16   29.54S
*EAGLE PASS    NOT AVBL
$$

TXZ173-191>194-202-209-217>225-228-280300-
CENTRAL AND SOUTH CENTRAL TEXAS

CITY           SKY/WX    TMP DP  RH WIND       PRES   REMARKS
GEORGETOWN     CLEAR     73  52  46 SE6       29.61R
AUSTIN/BERGSTM CLOUDY    74  57  55 SE7       29.61R
AUSTIN/MABRY   PTCLDY    76  55  48 SE9       29.62S
*AUSTIN/EXEC   FAIR      72  55  56 SE8       29.62S
*LAGO VISTA    CLOUDY    75  53  47 S8        29.62S
SAN MARCOS     CLOUDY    73  57  56 S8        29.63R
NEW BRAUNFELS  CLEAR     77  60  55 S10       29.61R
RANDOLPH AFB   CLEAR     76  61  59 SE12      29.62R
PT SAN ANTONIO CLEAR     79  61  54 SE15      29.59R
SAN ANTONIO    MOCLDY    79  60  52 SE16      29.62R
STINSON FIELD  PTCLDY    80  61  52 SE14      29.59S
*LA GRANGE     CLOUDY    75  66  72 S6        29.61R
*GIDDINGS      CLOUDY    71  58  63 S3        29.64R
*GONZALES      CLOUDY    74  66  77 SE12      29.63R
$$

TXZ163>164-176>182-195>201-210>213-226-227-235-280300-
SOUTHEAST TEXAS

CITY           SKY/WX    TMP DP  RH WIND       PRES   REMARKS
COLLEGE STN    CLOUDY    73  57  57 SE10      29.63S
*BRYAN         CLOUDY    68  56  64 SE7       29.64S
*CALDWELL      NOT AVBL
*CROCKETT      CLOUDY    70  54  56 S8        29.68R
*BRENHAM       CLOUDY    73  61  66 SE8       29.65R
HUNTSVILLE     PTCLDY    73  52  47 SE3       29.65S
CONROE         CLOUDY    69  56  62 SE9       29.67R
HOUSTON BUSH   CLOUDY    71  58  63 SE15      29.68R
HOUSTON HOBBY  MOCLDY    70  63  78 SE8       29.68F
*HOUSTON SW AP CLEAR     68  62  82 SE7       29.69F
PEARLAND       CLEAR     73  63  70 SE10      29.69F
HOUSTON HOOKS  CLEAR     72  54  53 SE9       29.67R
ELLINGTON FLD  PTCLDY    72  63  73 SE10      29.70S
SUGAR LAND     CLEAR     72  61  68 SE16      29.67S
*HOUSTON EXEC  CLEAR     72  61  68 SE15G21   29.67R
*CLEVELAND MUN CLEAR     69  57  66 S5        29.69R
*WHARTON       CLEAR     70  61  72 SE12      29.67F
*COLUMBUS      FAIR      73  62  67 S10G16    29.66R
*EAGLE LAKE    CLOUDY    73  65  76 SE12      29.65R
$$

TXZ214>216-236>238-280300-
THE UPPER TEXAS COAST

CITY           SKY/WX    TMP DP  RH WIND       PRES   REMARKS
*ORANGE        PTCLDY    72  66  83 S8        29.72F
PORT ARTHUR    PTCLDY    71  62  73 SE8       29.69F
GALVESTON      CLOUDY    75  67  76 E13       29.71S
ANGLETON       CLOUDY    73  66  78 E6        29.70R
*BAY CITY      CLOUDY    71  66  84 E5        29.69S
PALACIOS       CLOUDY    73  67  81 SE13      29.68S
$$

TXZ229>234-239>247-280300-
TEXAS COASTAL BEND AND RIO GRANDE PLAINS

CITY           SKY/WX    TMP DP  RH WIND       PRES   REMARKS
VICTORIA       CLOUDY    73  66  78 SE16      29.67S
*BEEVILLE      CLOUDY    73  68  85 SE8       29.66R
ROCKPORT       CLOUDY    75  69  81 SE10      29.66R
*PORT ARANSAS  CLOUDY    74  70  85 SE8       29.65F
*PORT LAVACA   CLOUDY    73  70  91 SE9       29.68R
*INGLESIDE     CLOUDY    76  70  81 E7        29.66R
CORPUS CHRISTI CLOUDY    75  69  81 SE12      29.65S
CORPUS NAS     CLOUDY    76  72  87 SE14      29.65R
*ROBSTOWN      CLOUDY    76  69  77 SE10      29.66R
ALICE          CLOUDY    75  67  76 SE10      29.64S
KINGSVILLE NAS CLOUDY    75  72  90 SE9       29.64F
COTULLA        CLEAR     85  64  49 SE21G26   29.58R
*FAITH RANCH   PTCLDY    86  63  45 SE12G18   29.55F
LAREDO         CLEAR     86  67  52 SE15      29.58R
$$

TXZ248>255-280300-
DEEP SOUTH TEXAS

CITY           SKY/WX    TMP DP  RH WIND       PRES   REMARKS
BROWNSVILLE    CLOUDY    81  73  76 SE8       29.64R
PORT ISABEL    CLOUDY    79  74  84 SE13      29.63F
*SOUTH PADRE   NOT AVBL
HARLINGEN      CLOUDY    79  74  84 SE13      29.62S
*HEBBRONVILLE  MOCLDY    76  67  75 SE10G17   29.64R
MCALLEN        MOCLDY    83  71  67 SE17      29.62S
*WESLACO       CLOUDY    81  70  70 SE9       29.61F
FALFURRIAS     CLOUDY    78  69  75 E10G17    29.63S
EDINBURG       PTCLDY    80  71  74 E10       29.62S
*ZAPATA        PTCLDY    85  66  53 SE12G21   29.57S
$$

TXZ213>215-236>238-242>244-246-247-251-254-255-280300-
CMAN STATIONS

STATION/POSITION TIME  TEMP    WIND        PRES    WAVE
                       AIR SEA DIR/SP/G            HT/PER
                 (UTC) (F)     (DEG/KT/KT) (MB)    (FT/S)
SABINE PASS      0130   74 77  130/ 11/ 14 1007.8
SEA RIM ST PARK  0100   72     130/ 10/ 13 1006.7
NORTH JETTY/GLS  0124      75  100/ 14/ 16 1005.7
EAGLE POINT      0130   72 75  130/ 14/ 16 1005.6
MORGANS POINT    0130   72 75  130/ 12/ 16 1005.3
MISSION/ARANSAS  0100   74                 1004.0
PORT O`CONNOR    0124   73     130/ 15/ 18 1004.4
PORT ARANSAS     0100   74 77  120/ 16/ 18 1004.0
MALAQUITE BEACH  0124   74 78  110/ 14/ 16 1004.4
BAFFIN BAY       0124   75 78   80/ 11/ 14 1003.7
PORT ISABEL      0124   78 81  170/  5/  7 1003.6
$$




USA.gov is the U.S. government's official web portal to all federal, state and local government web resources and services.